USA 157 (MILSTAR-2 2)

Last updated on Thu Oct 10 2024 00:02:37 GMT+0000 (Coordinated Universal Time)

1 26715U 01009A 24283.46123479 .00000116 00000+0 00000+0 0 9992 2 26715 10.8669 23.2493 0018413 170.9205 201.2594 0.99920289 26781
UTC large
Height (km)
Speed (km/s)
/
Latitude / Longitude
Inclination (degrees)
Orbital Period (minutes)
Azimuth
Elevation
Range (km)
Doppler Factor

Next 0 passes for location: London (51.5072 / 0.1276)

Sorry there are no passes over London.